This demonstration page uses our WeatherBlox Daily Observations layout. Learn more.

Hourly Observations for August 22, 2017

Temp ( °F °C ) Dew Point ( °F °C ) Humidity (%) Winds ( mph kmh ) Pressure ( in mb ) Visibility ( mi km ) Precip ( " mm )
12:10 am 00:10 Cloudy with Nearby Thunderstorms 67 19.4 65 18.3 93 93 NNW 8 13 29.97 1015 10 16.0934 0 0.0254
12:39 am 00:39 Cloudy 67 19.4 65 18.3 93 93 E 5 7 29.97 1015 10 16.0934 0 0.0254
12:54 am 00:54 Cloudy 67 19.4 65 18.3 93 93 E 3 6 30 1016 10 16.0934 0 0.0254
1:07 am 01:07 Cloudy 68 20 65 18.3 90 90 ESE 6 9 30 1016 10 16.0934 0 0
1:15 am 01:15 Cloudy 68 20 65 18.3 90 90 Calm 30 1016 10 16.0934 0 0
1:27 am 01:27 Cloudy 68 20 65 18.3 90 90 NE 3 6 30 1016 10 16.0934 0 0
1:42 am 01:42 Mostly Cloudy 67 19.4 65 18.3 93 93 NE 6 9 30 1016 10 16.0934 0 0
1:54 am 01:54 Mostly Cloudy 66 18.9 65 18.3 96 96 N 6 9 30.01 1016 10 16.0934 0 0
2:54 am 02:54 Mostly Clear 66 18.9 64 17.8 93 93 N 8 13 30.01 1016 10 16.0934 0 0
3:28 am 03:28 Mostly Cloudy 67 19.4 64 17.8 91 91 NNW 7 11 30.03 1017 10 16.0934 0 0
3:54 am 03:54 Partly Cloudy 65 18.3 64 17.8 97 97 N 6 9 30.03 1017 10 16.0934 0 0
4:54 am 04:54 Clear 64 17.8 62 16.7 93 93 Calm 30.05 1018 9 14.48406 0 0
5:54 am 05:54 Mostly Clear 62 16.7 61 16.1 96 96 NNW 3 6 30.07 1018 7 11.26538 0 0
6:21 am 06:21 Clear with Mist and Fog 62 16.7 61 16.1 96 96 Calm 30.12 1020 2 3.21868 0 0
6:30 am 06:30 Clear 62 16.7 61 16.1 96 96 NNW 3 6 30.12 1020 10 16.0934 0 0
6:54 am 06:54 Sunny 64 17.8 62 16.7 93 93 NNW 6 9 30.11 1020 10 16.0934 0 0
7:54 am 07:54 Sunny 65 18.3 60 15.6 84 84 NNW 9 15 30.14 1021 10 16.0934 0 0
8:54 am 08:54 Sunny 68 20 61 16.1 78 78 NNE 10 17 30.15 1021 10 16.0934 0 0
9:54 am 09:54 Sunny 70 21.1 57 13.9 64 64 NE 9 15 30.16 1022 10 16.0934 0 0
10:54 am 10:54 Sunny 72 22.2 56 13.3 57 57 NNE 8 13 30.18 1022 10 16.0934 0 0
11:54 am 11:54 Sunny 74 23.3 52 11.1 46 46 NNE 12 19 30.19 1022 10 16.0934 0 0
12:54 pm 12:54 Sunny 75 23.9 51 10.6 43 43 N 10 17 30.18 1022 10 16.0934 0 0
1:54 pm 13:54 Sunny 76 24.4 51 10.6 42 42 NE 10 17 30.18 1022 10 16.0934 0 0
2:54 pm 14:54 Sunny 77 25 53 11.7 43 43 NNE 10 17 30.17 1022 10 16.0934 0 0
3:54 pm 15:54 Sunny 77 25 52 11.1 42 42 N 9 15 30.15 1021 10 16.0934 0 0
4:54 pm 16:54 Sunny 77 25 51 10.6 40 40 NNW 10 17 30.15 1021 10 16.0934 0 0
5:54 pm 17:54 Sunny 77 25 52 11.1 42 42 N 10 17 30.14 1021 10 16.0934 0 0
6:54 pm 18:54 Sunny 74 23.3 52 11.1 46 46 N 9 15 30.14 1021 10 16.0934 0 0
7:54 pm 19:54 Sunny 68 20 55 12.8 63 63 NNE 7 11 30.13 1020 10 16.0934 0 0
8:54 pm 20:54 Clear 62 16.7 55 12.8 78 78 N 7 11 30.14 1021 10 16.0934 0 0
9:54 pm 21:54 Clear 63 17.2 55 12.8 76 76 Calm 30.15 1021 10 16.0934 0 0
10:54 pm 22:54 Clear 61 16.1 55 12.8 81 81 Calm 30.16 1021 10 16.0934 0 0
11:54 pm 23:54 Clear 59 15 55 12.8 87 87 Calm 30.16 1022 10 16.0934 0 0

Powered by AerisWeather